This is the latest recevied weather packets stored in our database for station/object DM4XI-13. If no packets are shown the sender has not sent any weather packets the latest 10 day(s).
| Time | Temp. | Humidity | Pressure | Rain* | Wind** | Luminosity | Snow |
|---|---|---|---|---|---|---|---|
| 1777269365 | 6.67° C | 62% | 1020.6 hPa | 0 mm | 0.45 m/s, 254° | 130 W/m² | - |
| 1777269304 | 6.67° C | 62% | 1020.4 hPa | 0 mm | 0.45 m/s, 126° | 129 W/m² | - |
| 1777269243 | 6.67° C | 62% | 1020.4 hPa | 0 mm | 0 m/s | 126 W/m² | - |
| 1777269181 | 6.67° C | 62% | 1020.4 hPa | 0 mm | 0.45 m/s, 125° | 124 W/m² | - |
| 1777269120 | 6.67° C | 61% | 1020.6 hPa | 0 mm | 0.45 m/s, 38° | 122 W/m² | - |
| 1777269059 | 6.67° C | 61% | 1020.5 hPa | 0 mm | 0.45 m/s, 80° | 121 W/m² | - |
| 1777268998 | 6.67° C | 62% | 1020.4 hPa | 0 mm | 0.45 m/s, 354° | 119 W/m² | - |
| 1777268937 | 6.11° C | 62% | 1020.5 hPa | 0 mm | 0.45 m/s, 343° | 117 W/m² | - |
| 1777268877 | 6.11° C | 62% | 1020.6 hPa | 0 mm | 0.45 m/s, 353° | 115 W/m² | - |
| 1777268816 | 6.11° C | 62% | 1020.5 hPa | 0 mm | 0 m/s | 113 W/m² | - |
| 1777268755 | 6.11° C | 63% | 1020.5 hPa | 0 mm | 0.45 m/s, 180° | 111 W/m² | - |
| 1777268694 | 6.11° C | 62% | 1020.7 hPa | 0 mm | 0.45 m/s, 276° | 110 W/m² | - |
| 1777268633 | 6.11° C | 62% | 1020.4 hPa | 0 mm | 0.45 m/s, 97° | 108 W/m² | - |
| 1777268572 | 6.11° C | 62% | 1020.6 hPa | 0 mm | 0.45 m/s, 199° | 106 W/m² | - |
| 1777268511 | 6.11° C | 61% | 1020.6 hPa | 0 mm | 0.45 m/s, 118° | 104 W/m² | - |
| 1777268450 | 6.11° C | 61% | 1020.5 hPa | 0 mm | 0.45 m/s, 120° | 102 W/m² | - |
| 1777268388 | 5.56° C | 62% | 1020.5 hPa | 0 mm | 0.45 m/s, 110° | 101 W/m² | - |
| 1777268327 | 5.56° C | 63% | 1020.4 hPa | 0 mm | 0.45 m/s, 152° | 99 W/m² | - |
| 1777268266 | 5.56° C | 63% | 1020.5 hPa | 0 mm | 0 m/s | 98 W/m² | - |
| 1777268206 | 5.56° C | 63% | 1020.5 hPa | 0 mm | 0.45 m/s, 114° | 96 W/m² | - |
| 1777268145 | 5.56° C | 64% | 1020.5 hPa | 0 mm | 0 m/s | 94 W/m² | - |
| 1777268084 | 5.56° C | 63% | 1020.5 hPa | 0 mm | 0.45 m/s, 93° | 93 W/m² | - |
| 1777268023 | 5.56° C | 64% | 1020.5 hPa | 0 mm | 0.45 m/s, 106° | 91 W/m² | - |
| 1777267961 | 5.56° C | 64% | 1020.6 hPa | 0 mm | 0 m/s | 90 W/m² | - |
| 1777267900 | 5.56° C | 64% | 1020.3 hPa | 0 mm | 0 m/s | 88 W/m² | - |
* Rain latest hour (hover to see other rain measurements)
** Current wind speed in m/s (hover to see current wind gust speed)